{"data":{"norad_id":67061,"intl_designator":"2025-295C","name":"HULIANWANG DIGUI-121","alt_names":[],"object_type":"PAYLOAD","status":"ACTIVE","operator":null,"country":"PRC","launch_date":"2025-12-11","launch_site_code":"WSC","launch_vehicle":null,"mission":null,"orbit_class":"UNKNOWN","rcs_meters":null,"size_class":null,"mass_kg":null,"dimensions":null,"purposes":[],"wikipedia_slug":null,"has_3d_model":false,"image_url":null,"decayed_at":null,"tle_current":{"epoch":"2026-05-25T03:26:24.746208Z","epoch_age_seconds":56034,"freshness":"FRESH","line1":"1 67061U 25295C   26145.14334197 -.00000084  00000+0  86151-4 0  9990","line2":"2 67061  49.9990 108.3053 0000837 353.1965   6.8896 13.29327126 22436","mean_motion":13.29327126,"eccentricity":8.37e-5,"inclination_deg":49.999,"raan_deg":108.3053,"arg_perigee_deg":353.1965,"mean_anomaly_deg":6.8896,"bstar":8.6151e-5,"rev_number":2243,"period_min":108.32548075153,"perigee_km":1148.6722744593,"apogee_km":1149.9323678017,"semimajor_km":7527.4393211305,"source":"CELESTRAK","updated_at":"2026-05-25T13:38:06.701244Z"}}}